Terminal Aerodrome Forecast
Issued by NWS

Home | Current Version | Previous Version | Text Only | Print | Product List | Glossary On
Versions: 1 2 3 4 5 6 7 8 9 10 11 12 13 14 15 16 17 18 19 20 21 22 23 24 25 26
000
FTUS46 KOTX 050526
TAFMWH
TAF
KMWH 050526Z 0506/0606 25010KT P6SM SKC
     FM051600 23012G20KT P6SM SCT120
     FM051900 23018G26KT P6SM SCT120
     FM060200 25012KT P6SM SKC=

USA.gov is the U.S. government's official web portal to all federal, state and local government web resources and services.